Time,TemperatureF,DewpointF,PressureIn,WindDirection,WindDirectionDegrees,WindSpeedMPH,WindSpeedGustMPH,Humidity,HourlyPrecipIn,Conditions,Clouds,dailyrainin,SoftwareType,DateUTC
2013-01-07 00:00:00,33.8,32.8,30.11,West,259,5.0,6.0,96,0.00,-SN,-SN,0.00,WeatherDisplay:10.37,2013-01-07 05:00:00,
2013-01-07 00:01:00,33.8,32.8,30.11,West,270,3.8,4.7,96,0.00,-SN,,0.00,WeatherDisplay:10.37,2013-01-07 05:01:00,
2013-01-07 00:06:00,33.8,32.8,30.12,West,270,4.9,9.2,96,0.00,-SN,,0.00,WeatherDisplay:10.37,2013-01-07 05:06:00,
2013-01-07 00:11:00,33.8,32.8,30.12,West,270,6.9,7.3,96,0.00,-SN,,0.00,WeatherDisplay:10.37,2013-01-07 05:11:00,
2013-01-07 00:16:00,33.8,32.8,30.13,West,270,5.5,8.1,96,0.00,-SN,,0.00,WeatherDisplay:10.37,2013-01-07 05:16:00,
2013-01-07 00:21:00,33.8,32.3,30.13,North,360,6.6,9.2,94,0.00,-SN,,0.00,WeatherDisplay:10.37,2013-01-07 05:21:00,
2013-01-07 00:26:00,33.6,31.5,30.14,West,270,6.2,8.8,92,0.00,-SN,,0.00,WeatherDisplay:10.37,2013-01-07 05:26:00,
2013-01-07 00:31:00,33.3,31.0,30.14,WSW,248,7.0,10.4,91,0.00,-SN,,0.00,WeatherDisplay:10.37,2013-01-07 05:31:00,
2013-01-07 00:36:00,33.1,30.5,30.14,NNW,338,7.6,10.4,90,0.00,-SN,,0.00,WeatherDisplay:10.37,2013-01-07 05:36:00,
2013-01-07 00:42:00,32.9,30.3,30.14,WNW,292,4.2,5.8,90,0.00,-SN,,0.00,WeatherDisplay:10.37,2013-01-07 05:42:00,
2013-01-07 00:47:00,32.7,30.1,30.14,West,270,5.9,7.3,90,0.00,-SN,,0.00,WeatherDisplay:10.37,2013-01-07 05:47:00,
2013-01-07 00:52:00,32.5,29.9,30.15,WSW,248,4.1,6.9,90,0.00,-SN,,0.00,WeatherDisplay:10.37,2013-01-07 05:52:00,
2013-01-07 00:57:00,32.5,29.9,30.15,NNW,338,6.0,6.9,90,0.00,-SN,,0.00,WeatherDisplay:10.37,2013-01-07 05:57:00,
2013-01-07 01:02:00,32.4,29.8,30.16,SW,225,5.4,7.3,90,0.00,-SN,,0.00,WeatherDisplay:10.37,2013-01-07 06:02:00,
2013-01-07 01:07:00,32.2,29.3,30.16,SW,225,4.6,6.9,89,0.00,-SN,,0.00,WeatherDisplay:10.37,2013-01-07 06:07:00,
2013-01-07 01:12:00,32.0,29.1,30.16,SW,225,5.3,5.3,89,0.00,OVC,,0.00,WeatherDisplay:10.37,2013-01-07 06:12:00,
2013-01-07 01:17:00,31.8,28.9,30.17,NNW,338,4.4,5.8,89,0.00,OVC,,0.00,WeatherDisplay:10.37,2013-01-07 06:17:00,
2013-01-07 01:22:00,31.6,29.0,30.17,West,270,3.1,5.8,90,0.00,OVC,,0.00,WeatherDisplay:10.37,2013-01-07 06:22:00,
2013-01-07 01:27:00,31.5,29.2,30.18,West,270,3.5,5.8,91,0.00,OVC,,0.00,WeatherDisplay:10.37,2013-01-07 06:27:00,
2013-01-07 01:32:00,31.3,28.7,30.18,SW,225,5.5,9.2,90,0.00,OVC,,0.00,WeatherDisplay:10.37,2013-01-07 06:32:00,
2013-01-07 01:37:00,31.3,28.7,30.18,WNW,292,5.5,6.9,90,0.00,OVC,,0.00,WeatherDisplay:10.37,2013-01-07 06:37:00,
2013-01-07 01:42:00,31.1,28.5,30.20,NW,315,5.8,6.9,90,0.00,OVC,,0.00,WeatherDisplay:10.37,2013-01-07 06:42:00,
2013-01-07 01:47:00,30.9,28.3,30.20,WNW,292,7.0,7.0,90,0.00,OVC,,0.00,WeatherDisplay:10.37,2013-01-07 06:47:00,
2013-01-07 01:52:00,30.9,28.0,30.20,NW,315,6.0,9.2,89,0.00,OVC,,0.00,WeatherDisplay:10.37,2013-01-07 06:52:00,
2013-01-07 01:57:00,30.7,27.8,30.20,WNW,292,7.8,8.1,89,0.00,OVC,,0.00,WeatherDisplay:10.37,2013-01-07 06:57:00,
2013-01-07 02:02:00,30.6,27.7,30.21,West,270,7.3,8.3,89,0.00,OVC,,0.00,WeatherDisplay:10.37,2013-01-07 07:02:00,
2013-01-07 02:07:00,30.4,27.8,30.21,West,270,7.7,8.8,90,0.00,OVC,,0.00,WeatherDisplay:10.37,2013-01-07 07:07:00,
2013-01-07 02:12:00,30.0,27.4,30.21,WNW,292,5.6,6.9,90,0.00,OVC,,0.00,WeatherDisplay:10.37,2013-01-07 07:12:00,
2013-01-07 02:17:00,29.8,27.0,30.23,NNW,338,8.4,9.9,89,0.00,OVC,,0.00,WeatherDisplay:10.37,2013-01-07 07:17:00,
2013-01-07 02:22:00,29.3,26.5,30.23,West,270,6.6,9.2,89,0.00,OVC,,0.00,WeatherDisplay:10.37,2013-01-07 07:22:00,
2013-01-07 02:27:00,29.1,26.3,30.23,NW,315,7.3,9.4,89,0.00,OVC,,0.00,WeatherDisplay:10.37,2013-01-07 07:27:00,
2013-01-07 02:32:00,28.9,26.1,30.23,SW,225,4.5,5.8,89,0.00,OVC,,0.00,WeatherDisplay:10.37,2013-01-07 07:32:00,
2013-01-07 02:37:00,28.8,26.0,30.23,West,270,6.0,6.9,89,0.00,OVC,,0.00,WeatherDisplay:10.37,2013-01-07 07:37:00,
2013-01-07 02:42:00,28.4,25.0,30.25,West,270,6.2,8.8,87,0.00,OVC,,0.00,WeatherDisplay:10.37,2013-01-07 07:42:00,
2013-01-07 02:47:00,28.2,24.8,30.25,West,270,6.7,9.4,87,0.00,OVC,,0.00,WeatherDisplay:10.37,2013-01-07 07:47:00,
2013-01-07 02:52:00,27.9,24.3,30.26,West,270,7.4,10.4,86,0.00,OVC,,0.00,WeatherDisplay:10.37,2013-01-07 07:52:00,
2013-01-07 02:57:00,27.7,24.1,30.26,WSW,248,2.7,3.5,86,0.00,OVC,,0.00,WeatherDisplay:10.37,2013-01-07 07:57:00,
2013-01-07 03:02:00,27.5,23.9,30.26,NNW,338,4.5,5.8,86,0.00,OVC,,0.00,WeatherDisplay:10.37,2013-01-07 08:02:00,
2013-01-07 03:07:00,27.3,23.4,30.26,NNW,338,4.3,5.8,85,0.00,OVC,,0.00,WeatherDisplay:10.37,2013-01-07 08:07:00,
2013-01-07 03:12:00,27.1,23.5,30.26,NNW,338,5.5,7.8,86,0.00,OVC,,0.00,WeatherDisplay:10.37,2013-01-07 08:12:00,
2013-01-07 03:17:00,27.1,23.5,30.27,WSW,248,6.1,6.9,86,0.00,OVC,,0.00,WeatherDisplay:10.37,2013-01-07 08:17:00,
2013-01-07 03:22:00,27.1,23.5,30.27,NW,315,4.7,6.3,86,0.00,BKN,,0.00,WeatherDisplay:10.37,2013-01-07 08:22:00,
2013-01-07 03:27:00,27.0,23.4,30.27,NW,315,2.3,3.2,86,0.00,BKN,,0.00,WeatherDisplay:10.37,2013-01-07 08:27:00,
2013-01-07 03:32:00,27.0,23.4,30.27,WNW,292,6.0,7.3,86,0.00,BKN,,0.00,WeatherDisplay:10.37,2013-01-07 08:32:00,
2013-01-07 03:37:00,27.0,23.4,30.27,NNW,338,4.2,5.8,86,0.00,BKN,,0.00,WeatherDisplay:10.37,2013-01-07 08:37:00,
2013-01-07 03:42:00,26.8,23.4,30.28,NNE,22,5.2,5.8,87,0.00,BKN,,0.00,WeatherDisplay:10.37,2013-01-07 08:42:00,
2013-01-07 03:47:00,26.6,23.3,30.28,SW,225,5.2,5.8,87,0.00,BKN,,0.00,WeatherDisplay:10.37,2013-01-07 08:47:00,
2013-01-07 03:52:00,26.6,23.3,30.28,WNW,292,3.3,4.6,87,0.00,BKN,,0.00,WeatherDisplay:10.37,2013-01-07 08:52:00,
2013-01-07 03:57:00,26.6,23.3,30.28,WNW,292,3.1,5.8,87,0.00,BKN,,0.00,WeatherDisplay:10.37,2013-01-07 08:57:00,
2013-01-07 04:02:00,26.4,23.1,30.28,West,270,4.0,4.7,87,0.00,BKN,,0.00,WeatherDisplay:10.37,2013-01-07 09:02:00,
2013-01-07 04:07:00,26.4,23.1,30.28,NW,315,3.6,4.6,87,0.00,BKN,,0.00,WeatherDisplay:10.37,2013-01-07 09:07:00,
2013-01-07 04:12:00,26.4,23.1,30.28,NW,315,4.1,5.8,87,0.00,BKN,,0.00,WeatherDisplay:10.37,2013-01-07 09:12:00,
2013-01-07 04:17:00,26.2,22.9,30.29,NW,315,4.1,5.8,87,0.00,BKN,,0.00,WeatherDisplay:10.37,2013-01-07 09:17:00,
2013-01-07 04:22:00,26.2,22.6,30.29,East,90,4.0,4.6,86,0.00,OVC,,0.00,WeatherDisplay:10.37,2013-01-07 09:22:00,
2013-01-07 04:27:00,26.1,22.5,30.30,WSW,248,4.5,5.8,86,0.00,OVC,,0.00,WeatherDisplay:10.37,2013-01-07 09:27:00,
2013-01-07 04:32:00,26.1,22.5,30.30,West,270,4.5,5.8,86,0.00,OVC,,0.00,WeatherDisplay:10.37,2013-01-07 09:32:00,
2013-01-07 04:37:00,25.9,22.3,30.30,West,270,3.1,3.5,86,0.00,OVC,,0.00,WeatherDisplay:10.37,2013-01-07 09:37:00,
2013-01-07 04:42:00,25.9,22.3,30.30,WNW,292,3.9,5.3,86,0.00,OVC,,0.00,WeatherDisplay:10.37,2013-01-07 09:42:00,
2013-01-07 04:47:00,25.9,22.3,30.30,NW,315,3.8,5.8,86,0.00,OVC,,0.00,WeatherDisplay:10.37,2013-01-07 09:47:00,
2013-01-07 04:52:00,25.7,22.1,30.31,WSW,248,4.6,5.8,86,0.00,OVC,,0.00,WeatherDisplay:10.37,2013-01-07 09:52:00,
2013-01-07 04:57:00,25.7,22.1,30.31,West,270,3.5,6.3,86,0.00,OVC,,0.00,WeatherDisplay:10.37,2013-01-07 09:57:00,
2013-01-07 05:02:00,25.5,21.9,30.31,West,270,2.0,2.3,86,0.00,OVC,,0.00,WeatherDisplay:10.37,2013-01-07 10:02:00,
2013-01-07 05:07:00,25.3,21.7,30.31,NW,315,4.0,5.8,86,0.00,OVC,,0.00,WeatherDisplay:10.37,2013-01-07 10:07:00,
2013-01-07 05:12:00,25.3,21.7,30.31,SSW,202,2.7,3.5,86,0.00,OVC,,0.00,WeatherDisplay:10.37,2013-01-07 10:12:00,
2013-01-07 05:17:00,25.3,21.7,30.31,West,270,3.6,5.8,86,0.00,OVC,,0.00,WeatherDisplay:10.37,2013-01-07 10:17:00,
2013-01-07 05:22:00,25.2,21.6,30.31,WSW,248,4.4,5.8,86,0.00,OVC,,0.00,WeatherDisplay:10.37,2013-01-07 10:22:00,
2013-01-07 05:27:00,25.2,21.6,30.31,NW,315,3.0,3.5,86,0.00,OVC,,0.00,WeatherDisplay:10.37,2013-01-07 10:27:00,
2013-01-07 05:32:00,25.2,21.6,30.31,West,270,3.0,3.5,86,0.00,OVC,,0.00,WeatherDisplay:10.37,2013-01-07 10:32:00,
2013-01-07 05:37:00,25.2,21.9,30.31,WSW,248,4.7,5.8,87,0.00,OVC,,0.00,WeatherDisplay:10.37,2013-01-07 10:37:00,
2013-01-07 05:42:00,25.2,21.9,30.31,SSW,202,3.1,4.6,87,0.00,OVC,,0.00,WeatherDisplay:10.37,2013-01-07 10:42:00,
2013-01-07 05:47:00,25.0,21.7,30.31,SW,225,2.2,4.2,87,0.00,OVC,,0.00,WeatherDisplay:10.37,2013-01-07 10:47:00,
2013-01-07 05:52:00,25.0,21.7,30.32,NW,315,4.4,6.8,87,0.00,OVC,,0.00,WeatherDisplay:10.37,2013-01-07 10:52:00,
2013-01-07 05:57:00,25.0,21.7,30.32,WNW,292,3.3,4.2,87,0.00,OVC,,0.00,WeatherDisplay:10.37,2013-01-07 10:57:00,
2013-01-07 06:02:00,25.0,21.7,30.32,WNW,292,3.0,4.6,87,0.00,OVC,,0.00,WeatherDisplay:10.37,2013-01-07 11:02:00,
2013-01-07 06:07:00,25.0,21.7,30.33,West,270,2.6,4.6,87,0.00,OVC,,0.00,WeatherDisplay:10.37,2013-01-07 11:07:00,
2013-01-07 06:12:00,25.0,21.4,30.33,West,270,3.7,3.7,86,0.00,OVC,,0.00,WeatherDisplay:10.37,2013-01-07 11:12:00,
2013-01-07 06:17:00,25.0,21.4,30.33,West,270,0.8,2.3,86,0.00,OVC,,0.00,WeatherDisplay:10.37,2013-01-07 11:17:00,
2013-01-07 06:22:00,24.8,21.2,30.33,West,270,2.8,3.7,86,0.00,OVC,,0.00,WeatherDisplay:10.37,2013-01-07 11:22:00,
2013-01-07 06:27:00,24.8,21.2,30.34,NNE,22,2.1,3.5,86,0.00,OVC,,0.00,WeatherDisplay:10.37,2013-01-07 11:27:00,
2013-01-07 06:32:00,24.8,21.2,30.34,West,270,3.3,4.6,86,0.00,OVC,,0.00,WeatherDisplay:10.37,2013-01-07 11:32:00,
2013-01-07 06:37:00,24.8,21.5,30.34,WSW,248,1.1,2.2,87,0.00,OVC,,0.00,WeatherDisplay:10.37,2013-01-07 11:37:00,
2013-01-07 06:42:00,24.8,21.5,30.34,SSW,202,3.0,3.5,87,0.00,OVC,,0.00,WeatherDisplay:10.37,2013-01-07 11:42:00,
2013-01-07 06:47:00,24.8,21.5,30.34,NNW,338,2.3,2.3,87,0.00,OVC,,0.00,WeatherDisplay:10.37,2013-01-07 11:47:00,
2013-01-07 06:52:00,24.8,21.5,30.35,NW,315,2.4,3.5,87,0.00,OVC,,0.00,WeatherDisplay:10.37,2013-01-07 11:52:00,
2013-01-07 06:57:00,24.8,21.5,30.35,SSW,202,1.8,2.3,87,0.00,OVC,,0.00,WeatherDisplay:10.37,2013-01-07 11:57:00,
2013-01-07 07:02:00,24.8,21.5,30.35,NNW,338,1.0,2.7,87,0.00,OVC,,0.00,WeatherDisplay:10.37,2013-01-07 12:02:00,
2013-01-07 07:07:00,24.8,21.5,30.35,NNW,338,2.3,3.2,87,0.00,OVC,,0.00,WeatherDisplay:10.37,2013-01-07 12:07:00,
2013-01-07 07:12:00,24.8,21.5,30.35,North,360,1.3,1.3,87,0.00,OVC,,0.00,WeatherDisplay:10.37,2013-01-07 12:12:00,
2013-01-07 07:17:00,24.8,21.8,30.35,NNW,338,2.2,2.3,88,0.00,OVC,,0.00,WeatherDisplay:10.37,2013-01-07 12:17:00,
2013-01-07 07:22:00,24.8,21.8,30.35,ESE,112,2.4,2.7,88,0.00,OVC,,0.00,WeatherDisplay:10.37,2013-01-07 12:22:00,
2013-01-07 07:27:00,24.6,21.6,30.35,NNE,22,1.7,1.7,88,0.00,OVC,,0.00,WeatherDisplay:10.37,2013-01-07 12:27:00,
2013-01-07 07:32:00,24.6,21.6,30.35,WSW,248,0.0,0.0,88,0.00,OVC,,0.00,WeatherDisplay:10.37,2013-01-07 12:32:00,
2013-01-07 07:37:00,24.6,21.6,30.35,NNW,338,2.2,3.5,88,0.00,OVC,,0.00,WeatherDisplay:10.37,2013-01-07 12:37:00,
2013-01-07 07:42:00,24.6,21.6,30.35,SSW,202,1.1,2.3,88,0.00,OVC,,0.00,WeatherDisplay:10.37,2013-01-07 12:42:00,
2013-01-07 07:47:00,24.6,21.6,30.35,SSW,202,0.7,1.1,88,0.00,OVC,,0.00,WeatherDisplay:10.37,2013-01-07 12:47:00,
2013-01-07 07:52:00,24.6,21.6,30.35,NE,45,0.5,1.1,88,0.00,OVC,,0.00,WeatherDisplay:10.37,2013-01-07 12:52:00,
2013-01-07 07:57:00,24.6,21.6,30.35,WNW,292,2.4,2.4,88,0.00,OVC,,0.00,WeatherDisplay:10.37,2013-01-07 12:57:00,
2013-01-07 08:02:00,24.8,21.8,30.36,West,270,2.0,2.3,88,0.00,OVC,,0.00,WeatherDisplay:10.37,2013-01-07 13:02:00,
2013-01-07 08:07:00,24.8,21.8,30.36,West,270,1.5,2.2,88,0.00,OVC,,0.00,WeatherDisplay:10.37,2013-01-07 13:07:00,
2013-01-07 08:12:00,24.8,21.8,30.36,SW,225,1.4,1.4,88,0.00,OVC,,0.00,WeatherDisplay:10.37,2013-01-07 13:12:00,
2013-01-07 08:17:00,25.0,21.7,30.36,WSW,248,0.9,1.7,87,0.00,OVC,,0.00,WeatherDisplay:10.37,2013-01-07 13:17:00,
2013-01-07 08:22:00,25.2,21.9,30.36,West,270,1.2,1.7,87,0.00,OVC,,0.00,WeatherDisplay:10.37,2013-01-07 13:22:00,
2013-01-07 08:27:00,25.3,22.0,30.37,WSW,248,1.2,1.2,87,0.00,OVC,,0.00,WeatherDisplay:10.37,2013-01-07 13:27:00,
2013-01-07 08:32:00,25.7,22.6,30.37,WSW,248,0.7,1.1,88,0.00,OVC,,0.00,WeatherDisplay:10.37,2013-01-07 13:32:00,
2013-01-07 08:37:00,25.9,22.6,30.37,NW,315,0.0,0.0,87,0.00,OVC,,0.00,WeatherDisplay:10.37,2013-01-07 13:37:00,
2013-01-07 08:42:00,25.9,22.3,30.38,ESE,112,2.1,2.3,86,0.00,OVC,,0.00,WeatherDisplay:10.37,2013-01-07 13:42:00,
2013-01-07 08:47:00,26.1,22.5,30.38,ESE,112,2.0,2.3,86,0.00,OVC,,0.00,WeatherDisplay:10.37,2013-01-07 13:47:00,
2013-01-07 08:52:00,26.2,22.6,30.38,ESE,112,2.2,2.3,86,0.00,OVC,,0.00,WeatherDisplay:10.37,2013-01-07 13:52:00,
2013-01-07 08:57:00,26.8,22.9,30.38,South,180,0.0,0.0,85,0.00,OVC,,0.00,WeatherDisplay:10.37,2013-01-07 13:57:00,
2013-01-07 09:02:00,27.0,22.8,30.38,South,180,1.8,2.3,84,0.00,OVC,,0.00,WeatherDisplay:10.37,2013-01-07 14:02:00,
2013-01-07 09:07:00,27.3,23.1,30.38,West,270,0.0,0.0,84,0.00,OVC,,0.00,WeatherDisplay:10.37,2013-01-07 14:07:00,
2013-01-07 09:12:00,27.1,22.9,30.38,SSE,158,3.1,3.7,84,0.00,BKN,,0.00,WeatherDisplay:10.37,2013-01-07 14:12:00,
2013-01-07 09:17:00,27.5,23.3,30.38,South,180,2.1,2.3,84,0.00,BKN,,0.00,WeatherDisplay:10.37,2013-01-07 14:17:00,
2013-01-07 09:22:00,27.9,23.4,30.38,SSW,202,2.1,2.3,83,0.00,BKN,,0.00,WeatherDisplay:10.37,2013-01-07 14:22:00,
2013-01-07 09:27:00,28.0,23.8,30.38,SSE,158,0.4,3.7,84,0.00,BKN,,0.00,WeatherDisplay:10.37,2013-01-07 14:27:00,
2013-01-07 09:32:00,28.2,23.4,30.38,SSW,202,2.3,3.5,82,0.00,BKN,,0.00,WeatherDisplay:10.37,2013-01-07 14:32:00,
2013-01-07 09:37:00,28.6,23.8,30.38,SW,225,1.6,2.3,82,0.00,BKN,,0.00,WeatherDisplay:10.37,2013-01-07 14:37:00,
2013-01-07 09:42:00,27.7,22.9,30.39,SSW,202,3.2,5.3,82,0.00,BKN,,0.00,WeatherDisplay:10.37,2013-01-07 14:42:00,
2013-01-07 09:47:00,27.5,23.0,30.39,West,270,3.1,4.2,83,0.00,BKN,,0.00,WeatherDisplay:10.37,2013-01-07 14:47:00,
2013-01-07 09:52:00,28.8,23.1,30.40,ENE,68,2.9,3.5,79,0.00,BKN,,0.00,WeatherDisplay:10.37,2013-01-07 14:52:00,
2013-01-07 09:57:00,28.8,23.1,30.40,SW,225,2.4,2.4,79,0.00,BKN,,0.00,WeatherDisplay:10.37,2013-01-07 14:57:00,
2013-01-07 10:02:00,27.7,22.9,30.39,West,270,2.9,3.5,82,0.00,BKN,,0.00,WeatherDisplay:10.37,2013-01-07 15:02:00,
2013-01-07 10:07:00,27.7,23.2,30.39,SSW,202,1.4,3.7,83,0.00,BKN,,0.00,WeatherDisplay:10.37,2013-01-07 15:07:00,
2013-01-07 10:12:00,27.9,23.1,30.39,West,270,4.6,5.8,82,0.00,BKN,,0.00,WeatherDisplay:10.37,2013-01-07 15:12:00,
2013-01-07 10:17:00,28.0,23.2,30.41,WSW,248,3.1,4.6,82,0.00,BKN,,0.00,WeatherDisplay:10.37,2013-01-07 15:17:00,
2013-01-07 10:22:00,28.6,23.5,30.41,West,270,2.8,3.5,81,0.00,BKN,,0.00,WeatherDisplay:10.37,2013-01-07 15:22:00,
2013-01-07 10:27:00,28.8,23.1,30.40,West,270,2.4,4.2,79,0.00,BKN,,0.00,WeatherDisplay:10.37,2013-01-07 15:27:00,
2013-01-07 10:32:00,29.3,23.9,30.40,WNW,292,3.5,4.7,80,0.00,BKN,,0.00,WeatherDisplay:10.37,2013-01-07 15:32:00,
2013-01-07 10:37:00,29.1,23.4,30.40,SW,225,4.9,5.8,79,0.00,BKN,,0.00,WeatherDisplay:10.37,2013-01-07 15:37:00,
2013-01-07 10:42:00,28.9,23.2,30.40,West,270,7.2,8.3,79,0.00,BKN,,0.00,WeatherDisplay:10.37,2013-01-07 15:42:00,
2013-01-07 10:47:00,29.1,23.1,30.40,West,270,7.8,9.2,78,0.00,BKN,,0.00,WeatherDisplay:10.37,2013-01-07 15:47:00,
2013-01-07 10:52:00,29.3,23.3,30.40,NNW,338,5.9,9.4,78,0.00,BKN,,0.00,WeatherDisplay:10.37,2013-01-07 15:52:00,
2013-01-07 10:57:00,29.7,23.7,30.40,West,270,5.1,5.8,78,0.00,BKN,,0.00,WeatherDisplay:10.37,2013-01-07 15:57:00,
2013-01-07 11:02:00,30.0,23.0,30.40,WSW,248,8.2,10.4,75,0.00,BKN,,0.00,WeatherDisplay:10.37,2013-01-07 16:02:00,
2013-01-07 11:07:00,30.9,23.6,30.40,WSW,248,8.0,9.2,74,0.00,BKN,,0.00,WeatherDisplay:10.37,2013-01-07 16:07:00,
2013-01-07 11:12:00,31.1,23.8,30.40,SW,225,4.9,10.4,74,0.00,BKN,,0.00,WeatherDisplay:10.37,2013-01-07 16:12:00,
2013-01-07 11:17:00,30.6,23.0,30.40,SSW,202,7.2,11.5,73,0.00,BKN,,0.00,WeatherDisplay:10.37,2013-01-07 16:17:00,
2013-01-07 11:22:00,30.6,22.6,30.40,West,270,8.1,9.4,72,0.00,BKN,,0.00,WeatherDisplay:10.37,2013-01-07 16:22:00,
2013-01-07 11:27:00,30.7,23.1,30.39,West,270,6.4,7.8,73,0.00,BKN,,0.00,WeatherDisplay:10.37,2013-01-07 16:27:00,
2013-01-07 11:32:00,31.5,23.8,30.39,SSW,202,6.0,9.2,73,0.00,BKN,,0.00,WeatherDisplay:10.37,2013-01-07 16:32:00,
2013-01-07 11:37:00,31.1,23.5,30.39,NW,315,7.4,8.1,73,0.00,BKN,,0.00,WeatherDisplay:10.37,2013-01-07 16:37:00,
2013-01-07 11:42:00,30.7,22.7,30.39,SSE,158,7.4,9.9,72,0.00,BKN,,0.00,WeatherDisplay:10.37,2013-01-07 16:42:00,
2013-01-07 11:47:00,30.6,22.6,30.39,SW,225,7.0,10.4,72,0.00,BKN,,0.00,WeatherDisplay:10.37,2013-01-07 16:47:00,
2013-01-07 11:52:00,30.6,22.6,30.39,NNW,338,8.3,9.2,72,0.00,BKN,,0.00,WeatherDisplay:10.37,2013-01-07 16:52:00,
2013-01-07 11:57:00,30.7,22.4,30.39,WSW,248,6.3,9.2,71,0.00,BKN,,0.00,WeatherDisplay:10.37,2013-01-07 16:57:00,
2013-01-07 12:02:00,30.9,22.6,30.39,SW,225,4.0,5.8,71,0.00,BKN,,0.00,WeatherDisplay:10.37,2013-01-07 17:02:00,
2013-01-07 12:07:00,30.9,22.3,30.39,West,270,7.0,8.1,70,0.00,BKN,,0.00,WeatherDisplay:10.37,2013-01-07 17:07:00,
2013-01-07 12:12:00,31.1,22.1,30.39,WSW,248,9.2,9.4,69,0.00,BKN,,0.00,WeatherDisplay:10.37,2013-01-07 17:12:00,
2013-01-07 12:17:00,30.7,22.1,30.38,WSW,248,4.9,6.3,70,0.00,BKN,,0.00,WeatherDisplay:10.37,2013-01-07 17:17:00,
2013-01-07 12:22:00,31.3,22.6,30.38,SSW,202,5.8,8.1,70,0.00,BKN,,0.00,WeatherDisplay:10.37,2013-01-07 17:22:00,
2013-01-07 12:27:00,31.8,23.1,30.38,WSW,248,6.5,8.1,70,0.00,BKN,,0.00,WeatherDisplay:10.37,2013-01-07 17:27:00,
2013-01-07 12:32:00,31.8,22.8,30.38,SW,225,5.2,6.3,69,0.00,BKN,,0.00,WeatherDisplay:10.37,2013-01-07 17:32:00,
2013-01-07 12:37:00,32.0,23.0,30.38,West,270,4.0,5.8,69,0.00,BKN,,0.00,WeatherDisplay:10.37,2013-01-07 17:37:00,
2013-01-07 12:42:00,31.8,22.8,30.38,SW,225,5.0,6.3,69,0.00,BKN,,0.00,WeatherDisplay:10.37,2013-01-07 17:42:00,
2013-01-07 12:47:00,31.6,22.9,30.38,WSW,248,5.6,6.9,70,0.00,BKN,,0.00,WeatherDisplay:10.37,2013-01-07 17:47:00,
2013-01-07 12:52:00,31.6,22.9,30.37,NW,315,6.3,7.3,70,0.00,BKN,,0.00,WeatherDisplay:10.37,2013-01-07 17:52:00,
2013-01-07 12:57:00,31.8,23.5,30.37,SW,225,4.0,5.8,71,0.00,BKN,,0.00,WeatherDisplay:10.37,2013-01-07 17:57:00,
2013-01-07 13:02:00,32.0,23.7,30.37,SSE,158,3.2,4.6,71,0.00,BKN,,0.00,WeatherDisplay:10.37,2013-01-07 18:02:00,
2013-01-07 13:07:00,32.2,23.8,30.37,West,270,4.4,5.8,71,0.00,BKN,,0.00,WeatherDisplay:10.37,2013-01-07 18:07:00,
2013-01-07 13:12:00,32.2,23.8,30.37,WSW,248,4.1,4.6,71,0.00,OVC,,0.00,WeatherDisplay:10.37,2013-01-07 18:12:00,
2013-01-07 13:17:00,32.4,24.0,30.36,SW,225,4.9,5.8,71,0.00,OVC,,0.00,WeatherDisplay:10.37,2013-01-07 18:17:00,
2013-01-07 13:22:00,32.5,24.1,30.36,West,270,5.1,7.8,71,0.00,OVC,,0.00,WeatherDisplay:10.37,2013-01-07 18:22:00,
2013-01-07 13:27:00,32.5,23.8,30.36,WNW,292,4.8,5.8,70,0.00,OVC,,0.00,WeatherDisplay:10.37,2013-01-07 18:27:00,
2013-01-07 13:32:00,32.4,23.7,30.36,WSW,248,5.2,6.9,70,0.00,OVC,,0.00,WeatherDisplay:10.37,2013-01-07 18:32:00,
2013-01-07 13:37:00,32.9,24.2,30.36,WSW,248,3.0,4.6,70,0.00,OVC,,0.00,WeatherDisplay:10.37,2013-01-07 18:37:00,
2013-01-07 13:42:00,32.7,24.0,30.36,SW,225,5.8,5.8,70,0.00,OVC,,0.00,WeatherDisplay:10.37,2013-01-07 18:42:00,
2013-01-07 13:47:00,33.3,24.6,30.36,WSW,248,3.4,4.6,70,0.00,OVC,,0.00,WeatherDisplay:10.37,2013-01-07 18:47:00,
2013-01-07 13:52:00,32.9,23.8,30.35,SSE,158,4.0,4.7,69,0.00,OVC,,0.00,WeatherDisplay:10.37,2013-01-07 18:52:00,
2013-01-07 13:57:00,32.7,24.0,30.35,WSW,248,4.4,6.3,70,0.00,OVC,,0.00,WeatherDisplay:10.37,2013-01-07 18:57:00,
2013-01-07 14:02:00,33.1,24.0,30.35,NNE,22,5.6,7.3,69,0.00,OVC,,0.00,WeatherDisplay:10.37,2013-01-07 19:02:00,
2013-01-07 14:07:00,33.3,24.2,30.34,West,270,5.8,8.8,69,0.00,OVC,,0.00,WeatherDisplay:10.37,2013-01-07 19:07:00,
2013-01-07 14:12:00,33.3,24.2,30.34,North,360,3.8,4.7,69,0.00,OVC,,0.00,WeatherDisplay:10.37,2013-01-07 19:12:00,
2013-01-07 14:17:00,33.3,24.2,30.34,NNW,338,4.9,5.8,69,0.00,OVC,,0.00,WeatherDisplay:10.37,2013-01-07 19:17:00,
2013-01-07 14:22:00,33.4,24.3,30.34,WNW,292,3.9,5.8,69,0.00,OVC,,0.00,WeatherDisplay:10.37,2013-01-07 19:22:00,
2013-01-07 14:27:00,33.1,24.0,30.33,NNE,22,4.1,5.8,69,0.00,OVC,,0.00,WeatherDisplay:10.37,2013-01-07 19:27:00,
2013-01-07 14:32:00,33.6,24.5,30.33,SSW,202,5.2,6.3,69,0.00,OVC,,0.00,WeatherDisplay:10.37,2013-01-07 19:32:00,
2013-01-07 14:37:00,33.8,24.7,30.33,SW,225,3.6,4.6,69,0.00,OVC,,0.00,WeatherDisplay:10.37,2013-01-07 19:37:00,
2013-01-07 14:42:00,33.8,24.4,30.34,South,180,6.2,7.3,68,0.00,OVC,,0.00,WeatherDisplay:10.37,2013-01-07 19:42:00,
2013-01-07 14:47:00,33.6,24.2,30.34,ESE,112,9.7,12.7,68,0.00,OVC,,0.00,WeatherDisplay:10.37,2013-01-07 19:47:00,
2013-01-07 14:52:00,33.8,24.7,30.33,WSW,248,4.1,5.8,69,0.00,OVC,,0.00,WeatherDisplay:10.37,2013-01-07 19:52:00,
2013-01-07 14:57:00,33.8,24.7,30.33,West,270,5.4,6.9,69,0.00,OVC,,0.00,WeatherDisplay:10.37,2013-01-07 19:57:00,
2013-01-07 15:02:00,34.0,24.9,30.32,SW,225,4.8,5.8,69,0.00,OVC,,0.00,WeatherDisplay:10.37,2013-01-07 20:02:00,
2013-01-07 15:07:00,34.0,24.9,30.32,SSW,202,5.7,6.9,69,0.00,OVC,,0.00,WeatherDisplay:10.37,2013-01-07 20:07:00,
2013-01-07 15:12:00,34.0,24.9,30.32,West,270,6.7,8.1,69,0.00,OVC,,0.00,WeatherDisplay:10.37,2013-01-07 20:12:00,
2013-01-07 15:17:00,34.0,24.9,30.33,West,270,8.4,10.4,69,0.00,OVC,,0.00,WeatherDisplay:10.37,2013-01-07 20:17:00,
2013-01-07 15:19:00,34.0,24.9,30.33,SW,225,11.2,13.8,69,0.00,OVC,,0.00,WeatherDisplay:10.37,2013-01-07 20:19:00,
2013-01-07 15:24:00,34.0,24.9,30.33,SW,225,6.1,10.4,69,0.00,OVC,,0.00,WeatherDisplay:10.37,2013-01-07 20:24:00,
2013-01-07 15:29:00,34.0,24.9,30.32,WSW,248,6.2,7.8,69,0.00,OVC,,0.00,WeatherDisplay:10.37,2013-01-07 20:29:00,
2013-01-07 15:34:00,34.0,24.9,30.32,SW,225,6.5,6.9,69,0.00,OVC,,0.00,WeatherDisplay:10.37,2013-01-07 20:34:00,
2013-01-07 15:39:00,34.0,24.9,30.31,WSW,248,5.6,6.9,69,0.00,OVC,,0.00,WeatherDisplay:10.37,2013-01-07 20:39:00,
2013-01-07 15:44:00,34.0,24.9,30.31,SE,135,5.9,8.1,69,0.00,OVC,,0.00,WeatherDisplay:10.37,2013-01-07 20:44:00,
2013-01-07 15:49:00,34.0,25.2,30.31,SSE,158,4.9,5.8,70,0.00,OVC,,0.00,WeatherDisplay:10.37,2013-01-07 20:49:00,
2013-01-07 15:54:00,34.0,25.2,30.30,SW,225,4.8,5.8,70,0.00,OVC,,0.00,WeatherDisplay:10.37,2013-01-07 20:54:00,
2013-01-07 15:59:00,33.8,25.0,30.30,NW,315,5.4,6.9,70,0.00,OVC,,0.00,WeatherDisplay:10.37,2013-01-07 20:59:00,
2013-01-07 16:04:00,33.6,24.9,30.30,WSW,248,9.1,10.4,70,0.00,OVC,,0.00,WeatherDisplay:10.37,2013-01-07 21:04:00,
2013-01-07 16:09:00,33.6,24.9,30.30,West,270,8.5,9.2,70,0.00,OVC,,0.00,WeatherDisplay:10.37,2013-01-07 21:09:00,
2013-01-07 16:14:00,33.6,24.9,30.30,West,270,9.0,10.4,70,0.00,OVC,,0.00,WeatherDisplay:10.37,2013-01-07 21:14:00,
2013-01-07 16:19:00,33.6,24.9,30.30,West,270,6.4,10.4,70,0.00,OVC,,0.00,WeatherDisplay:10.37,2013-01-07 21:19:00,
2013-01-07 16:24:00,33.4,24.7,30.30,SW,225,6.9,9.2,70,0.00,OVC,,0.00,WeatherDisplay:10.37,2013-01-07 21:24:00,
2013-01-07 16:29:00,33.4,24.7,30.29,SW,225,5.1,8.8,70,0.00,OVC,,0.00,WeatherDisplay:10.37,2013-01-07 21:29:00,
2013-01-07 16:34:00,33.3,24.6,30.29,WNW,292,6.8,9.2,70,0.00,OVC,,0.00,WeatherDisplay:10.37,2013-01-07 21:34:00,
2013-01-07 16:39:00,33.1,24.4,30.29,WNW,292,6.3,10.4,70,0.00,OVC,,0.00,WeatherDisplay:10.37,2013-01-07 21:39:00,
2013-01-07 16:44:00,32.9,24.5,30.29,West,270,5.9,9.2,71,0.00,OVC,,0.00,WeatherDisplay:10.37,2013-01-07 21:44:00,
2013-01-07 16:49:00,32.5,24.5,30.29,West,270,4.1,7.3,72,0.00,OVC,,0.00,WeatherDisplay:10.37,2013-01-07 21:49:00,
2013-01-07 16:54:00,32.2,24.2,30.28,West,270,3.3,7.8,72,0.00,OVC,,0.00,WeatherDisplay:10.37,2013-01-07 21:54:00,
2013-01-07 16:59:00,32.0,24.0,30.28,SW,225,5.4,10.4,72,0.00,OVC,,0.00,WeatherDisplay:10.37,2013-01-07 21:59:00,
2013-01-07 17:04:00,31.8,24.1,30.27,SW,225,5.3,6.9,73,0.00,OVC,,0.00,WeatherDisplay:10.37,2013-01-07 22:04:00,
2013-01-07 17:09:00,31.6,23.9,30.27,West,270,3.0,6.9,73,0.00,OVC,,0.00,WeatherDisplay:10.37,2013-01-07 22:09:00,
2013-01-07 17:14:00,31.3,24.0,30.27,WSW,248,4.5,5.8,74,0.00,OVC,,0.00,WeatherDisplay:10.37,2013-01-07 22:14:00,
2013-01-07 17:19:00,31.5,24.2,30.27,West,270,3.3,5.8,74,0.00,OVC,,0.00,WeatherDisplay:10.37,2013-01-07 22:19:00,
2013-01-07 17:24:00,31.3,24.3,30.27,West,270,5.2,6.9,75,0.00,OVC,,0.00,WeatherDisplay:10.37,2013-01-07 22:24:00,
2013-01-07 17:29:00,31.1,24.1,30.27,NNE,22,4.6,4.7,75,0.00,OVC,,0.00,WeatherDisplay:10.37,2013-01-07 22:29:00,
2013-01-07 17:34:00,30.9,24.2,30.27,ENE,68,2.4,3.5,76,0.00,OVC,,0.00,WeatherDisplay:10.37,2013-01-07 22:34:00,
2013-01-07 17:39:00,30.6,24.2,30.26,WSW,248,2.3,3.5,77,0.00,OVC,,0.00,WeatherDisplay:10.37,2013-01-07 22:39:00,
2013-01-07 17:44:00,30.4,24.1,30.26,WNW,292,1.8,2.7,77,0.00,OVC,,0.00,WeatherDisplay:10.37,2013-01-07 22:44:00,
2013-01-07 17:49:00,29.8,23.8,30.26,West,270,2.1,2.3,78,0.00,OVC,,0.00,WeatherDisplay:10.37,2013-01-07 22:49:00,
2013-01-07 17:54:00,29.7,24.0,30.26,SW,225,3.9,4.6,79,0.00,OVC,,0.00,WeatherDisplay:10.37,2013-01-07 22:54:00,
2013-01-07 17:59:00,29.7,24.0,30.26,SSW,202,3.8,4.6,79,0.00,OVC,,0.00,WeatherDisplay:10.37,2013-01-07 22:59:00,
2013-01-07 18:04:00,29.8,24.1,30.26,SW,225,3.2,4.6,79,0.00,OVC,,0.00,WeatherDisplay:10.37,2013-01-07 23:04:00,
2013-01-07 18:09:00,30.0,24.3,30.26,SW,225,2.0,4.7,79,0.00,OVC,,0.00,WeatherDisplay:10.37,2013-01-07 23:09:00,
2013-01-07 18:14:00,29.8,24.1,30.26,WNW,292,2.4,5.8,79,0.00,BKN,,0.00,WeatherDisplay:10.37,2013-01-07 23:14:00,
2013-01-07 18:19:00,29.8,24.1,30.26,SSW,202,4.0,4.7,79,0.00,BKN,,0.00,WeatherDisplay:10.37,2013-01-07 23:19:00,
2013-01-07 18:24:00,29.8,24.1,30.26,West,270,3.1,5.8,79,0.00,SCT,,0.00,WeatherDisplay:10.37,2013-01-07 23:24:00,
2013-01-07 18:29:00,29.8,24.4,30.25,West,270,3.9,5.8,80,0.00,SCT,,0.00,WeatherDisplay:10.37,2013-01-07 23:29:00,
2013-01-07 18:34:00,30.0,24.6,30.25,West,270,5.9,5.9,80,0.00,SCT,,0.00,WeatherDisplay:10.37,2013-01-07 23:34:00,
2013-01-07 18:39:00,29.8,24.4,30.25,SW,225,3.8,4.6,80,0.00,SCT,,0.00,WeatherDisplay:10.37,2013-01-07 23:39:00,
2013-01-07 18:44:00,29.7,24.3,30.25,West,270,2.5,3.5,80,0.00,SCT,,0.00,WeatherDisplay:10.37,2013-01-07 23:44:00,
2013-01-07 18:49:00,29.3,24.2,30.25,NE,45,2.6,3.5,81,0.00,SCT,,0.00,WeatherDisplay:10.37,2013-01-07 23:49:00,
2013-01-07 18:54:00,29.1,24.0,30.24,ESE,112,0.8,2.3,81,0.00,SCT,,0.00,WeatherDisplay:10.37,2013-01-07 23:54:00,
2013-01-07 18:59:00,28.9,24.1,30.24,NNE,22,3.0,3.5,82,0.00,SCT,,0.00,WeatherDisplay:10.37,2013-01-07 23:59:00,
2013-01-07 19:04:00,28.8,24.0,30.24,West,270,2.5,3.5,82,0.00,SCT,,0.00,WeatherDisplay:10.37,2013-01-08 00:04:00,
2013-01-07 19:09:00,28.8,24.3,30.24,West,270,4.3,4.7,83,0.00,SCT,,0.00,WeatherDisplay:10.37,2013-01-08 00:09:00,
2013-01-07 19:14:00,28.8,24.3,30.23,NW,315,2.0,2.3,83,0.00,FEW,,0.00,WeatherDisplay:10.37,2013-01-08 00:14:00,
2013-01-07 19:19:00,28.4,23.9,30.23,West,270,3.4,4.6,83,0.00,FEW,,0.00,WeatherDisplay:10.37,2013-01-08 00:19:00,
2013-01-07 19:24:00,28.6,24.1,30.23,West,270,2.4,3.5,83,0.00,FEW,,0.00,WeatherDisplay:10.37,2013-01-08 00:24:00,
2013-01-07 19:29:00,28.6,24.1,30.23,ESE,112,0.0,4.6,83,0.00,CLR,,0.00,WeatherDisplay:10.37,2013-01-08 00:29:00,
2013-01-07 19:34:00,28.2,24.0,30.23,SSW,202,3.1,4.2,84,0.00,FEW,,0.00,WeatherDisplay:10.37,2013-01-08 00:34:00,
2013-01-07 19:39:00,28.2,24.0,30.23,SSW,202,4.1,4.1,84,0.00,FEW,,0.00,WeatherDisplay:10.37,2013-01-08 00:39:00,
2013-01-07 19:44:00,28.2,24.0,30.23,West,270,3.0,4.6,84,0.00,FEW,,0.00,WeatherDisplay:10.37,2013-01-08 00:44:00,
2013-01-07 19:49:00,28.0,23.8,30.23,SSW,202,3.6,4.6,84,0.00,FEW,,0.00,WeatherDisplay:10.37,2013-01-08 00:49:00,
2013-01-07 19:54:00,28.2,24.0,30.23,West,270,3.4,5.3,84,0.00,FEW,,0.00,WeatherDisplay:10.37,2013-01-08 00:54:00,
2013-01-07 19:59:00,28.2,24.0,30.23,NNW,338,4.2,8.1,84,0.00,FEW,,0.00,WeatherDisplay:10.37,2013-01-08 00:59:00,
2013-01-07 20:04:00,28.2,24.0,30.22,West,270,3.5,4.7,84,0.00,FEW,,0.00,WeatherDisplay:10.37,2013-01-08 01:04:00,
2013-01-07 20:09:00,28.2,24.0,30.22,WSW,248,4.2,5.8,84,0.00,FEW,,0.00,WeatherDisplay:10.37,2013-01-08 01:09:00,
2013-01-07 20:14:00,28.4,24.2,30.22,West,270,3.2,5.8,84,0.00,FEW,,0.00,WeatherDisplay:10.37,2013-01-08 01:14:00,
2013-01-07 20:19:00,28.6,24.4,30.22,West,270,3.8,4.6,84,0.00,FEW,,0.00,WeatherDisplay:10.37,2013-01-08 01:19:00,
2013-01-07 20:24:00,28.6,24.1,30.22,SW,225,2.6,6.9,83,0.00,FEW,,0.00,WeatherDisplay:10.37,2013-01-08 01:24:00,
2013-01-07 20:29:00,28.6,24.1,30.23,SW,225,4.3,5.8,83,0.00,FEW,,0.00,WeatherDisplay:10.37,2013-01-08 01:29:00,
2013-01-07 20:34:00,28.6,23.8,30.23,West,270,4.5,8.1,82,0.00,FEW,,0.00,WeatherDisplay:10.37,2013-01-08 01:34:00,
2013-01-07 20:39:00,28.6,23.8,30.22,WSW,248,4.8,5.8,82,0.00,FEW,,0.00,WeatherDisplay:10.37,2013-01-08 01:39:00,
2013-01-07 20:44:00,28.6,23.8,30.22,SW,225,3.7,6.3,82,0.00,FEW,,0.00,WeatherDisplay:10.37,2013-01-08 01:44:00,
2013-01-07 20:49:00,28.9,24.1,30.22,WSW,248,7.9,9.4,82,0.00,FEW,,0.00,WeatherDisplay:10.37,2013-01-08 01:49:00,
2013-01-07 20:54:00,28.9,23.8,30.22,ESE,112,4.8,5.8,81,0.00,FEW,,0.00,WeatherDisplay:10.37,2013-01-08 01:54:00,
2013-01-07 20:59:00,29.1,24.0,30.22,WSW,248,4.2,6.9,81,0.00,FEW,,0.00,WeatherDisplay:10.37,2013-01-08 01:59:00,
2013-01-07 21:04:00,28.9,23.8,30.22,NE,45,5.6,5.6,81,0.00,FEW,,0.00,WeatherDisplay:10.37,2013-01-08 02:04:00,
2013-01-07 21:09:00,28.9,23.8,30.22,West,270,3.5,4.6,81,0.00,FEW,,0.00,WeatherDisplay:10.37,2013-01-08 02:09:00,
2013-01-07 21:14:00,29.1,24.0,30.22,SSW,202,3.4,6.9,81,0.00,CLR,,0.00,WeatherDisplay:10.37,2013-01-08 02:14:00,
2013-01-07 21:19:00,29.3,24.2,30.23,SW,225,4.8,8.1,81,0.00,CLR,,0.00,WeatherDisplay:10.37,2013-01-08 02:19:00,
2013-01-07 21:24:00,29.1,24.0,30.23,West,270,4.8,4.8,81,0.00,CLR,,0.00,WeatherDisplay:10.37,2013-01-08 02:24:00,
2013-01-07 21:29:00,29.1,24.0,30.23,WSW,248,4.2,8.1,81,0.00,CLR,,0.00,WeatherDisplay:10.37,2013-01-08 02:29:00,
2013-01-07 21:34:00,28.8,23.7,30.23,SSW,202,4.3,4.3,81,0.00,CLR,,0.00,WeatherDisplay:10.37,2013-01-08 02:34:00,
2013-01-07 21:39:00,28.8,23.7,30.22,SSW,202,2.7,5.8,81,0.00,CLR,,0.00,WeatherDisplay:10.37,2013-01-08 02:39:00,
2013-01-07 21:44:00,28.9,23.8,30.22,WSW,248,5.1,8.1,81,0.00,CLR,,0.00,WeatherDisplay:10.37,2013-01-08 02:44:00,
2013-01-07 21:49:00,28.9,23.8,30.22,West,270,5.3,5.3,81,0.00,CLR,,0.00,WeatherDisplay:10.37,2013-01-08 02:49:00,
2013-01-07 21:54:00,28.9,23.8,30.22,West,270,3.2,5.8,81,0.00,CLR,,0.00,WeatherDisplay:10.37,2013-01-08 02:54:00,
2013-01-07 21:59:00,28.9,23.8,30.22,WNW,292,3.9,4.6,81,0.00,CLR,,0.00,WeatherDisplay:10.37,2013-01-08 02:59:00,
2013-01-07 22:04:00,28.9,23.8,30.22,West,270,5.7,6.9,81,0.00,CLR,,0.00,WeatherDisplay:10.37,2013-01-08 03:04:00,
2013-01-07 22:09:00,28.9,23.8,30.22,WSW,248,3.6,5.8,81,0.00,CLR,,0.00,WeatherDisplay:10.37,2013-01-08 03:09:00,
2013-01-07 22:14:00,28.9,23.8,30.21,WSW,248,3.7,5.8,81,0.00,CLR,,0.00,WeatherDisplay:10.37,2013-01-08 03:14:00,
2013-01-07 22:19:00,28.8,23.7,30.21,SSW,202,4.7,5.8,81,0.00,CLR,,0.00,WeatherDisplay:10.37,2013-01-08 03:19:00,
2013-01-07 22:24:00,28.8,23.7,30.21,South,180,5.0,5.3,81,0.00,CLR,,0.00,WeatherDisplay:10.37,2013-01-08 03:24:00,
2013-01-07 22:29:00,29.1,23.7,30.20,SW,225,6.9,9.4,80,0.00,CLR,,0.00,WeatherDisplay:10.37,2013-01-08 03:29:00,
2013-01-07 22:34:00,29.1,23.7,30.20,NW,315,6.7,9.2,80,0.00,CLR,,0.00,WeatherDisplay:10.37,2013-01-08 03:34:00,
2013-01-07 22:39:00,29.1,23.7,30.20,SE,135,3.8,5.8,80,0.00,CLR,,0.00,WeatherDisplay:10.37,2013-01-08 03:39:00,
2013-01-07 22:44:00,29.3,23.9,30.20,West,270,5.6,8.1,80,0.00,CLR,,0.00,WeatherDisplay:10.37,2013-01-08 03:44:00,
2013-01-07 22:49:00,29.5,23.8,30.20,West,270,4.9,9.2,79,0.00,CLR,,0.00,WeatherDisplay:10.37,2013-01-08 03:49:00,
2013-01-07 22:54:00,29.3,23.6,30.20,West,270,5.1,6.8,79,0.00,CLR,,0.00,WeatherDisplay:10.37,2013-01-08 03:54:00,
2013-01-07 22:59:00,29.3,23.6,30.20,NW,315,4.2,5.8,79,0.00,CLR,,0.00,WeatherDisplay:10.37,2013-01-08 03:59:00,
2013-01-07 23:04:00,29.3,23.6,30.20,SSW,202,6.6,6.9,79,0.00,CLR,,0.00,WeatherDisplay:10.37,2013-01-08 04:04:00,
2013-01-07 23:09:00,29.3,23.6,30.20,WSW,248,5.3,8.1,79,0.00,CLR,,0.00,WeatherDisplay:10.37,2013-01-08 04:09:00,
2013-01-07 23:14:00,29.1,23.4,30.20,West,270,4.0,4.6,79,0.00,CLR,,0.00,WeatherDisplay:10.37,2013-01-08 04:14:00,
2013-01-07 23:19:00,29.1,23.4,30.20,South,180,4.7,6.8,79,0.00,CLR,,0.00,WeatherDisplay:10.37,2013-01-08 04:19:00,
2013-01-07 23:24:00,29.1,23.4,30.20,WSW,248,5.4,5.8,79,0.00,CLR,,0.00,WeatherDisplay:10.37,2013-01-08 04:24:00,
2013-01-07 23:29:00,29.1,23.4,30.20,West,270,5.5,5.8,79,0.00,CLR,,0.00,WeatherDisplay:10.37,2013-01-08 04:29:00,
2013-01-07 23:34:00,29.3,23.6,30.20,SSW,202,4.4,8.1,79,0.00,CLR,,0.00,WeatherDisplay:10.37,2013-01-08 04:34:00,
2013-01-07 23:39:00,29.3,23.6,30.20,West,270,4.6,5.8,79,0.00,CLR,,0.00,WeatherDisplay:10.37,2013-01-08 04:39:00,
2013-01-07 23:44:00,29.3,23.6,30.20,South,180,3.9,5.8,79,0.00,CLR,,0.00,WeatherDisplay:10.37,2013-01-08 04:44:00,
2013-01-07 23:49:00,29.1,23.4,30.20,WSW,248,3.9,5.8,79,0.00,CLR,,0.00,WeatherDisplay:10.37,2013-01-08 04:49:00,
2013-01-07 23:54:00,29.1,23.4,30.20,WSW,248,4.9,6.3,79,0.00,CLR,,0.00,WeatherDisplay:10.37,2013-01-08 04:54:00,
2013-01-07 23:59:00,29.1,23.4,30.20,West,270,5.2,5.8,79,0.00,CLR,,0.00,WeatherDisplay:10.37,2013-01-08 04:59:00,